Pleasant View, CO (81331)

12:41 PM MDT on September 03, 2015 (GMT -0600)
Cahone (2.5 Miles NNE) | | Change Station
CLOSE
Current Station
Personal Weather Station
Location: Cahone, CO
Elevation: 6870 ft
Nearby Weather Stations

Elev 6870 ft 37.69 °N, 108.80 °W | Updated 5 seconds ago

Overcast
Overcast
75.8 °F
Feels Like 77 °F
N
4.0
Wind Variable Wind from South
Gusts 6.0 mph

Today
High -- | Low -- °F
--% Chance of Precip.
Yesterday
High -- | Low -- °F
Precip. -- in
6:47 AM 7:41 PM
Waning Gibbous, 68% visible
Pressure 29.94 in
Visibility 10.0 miles
Clouds Clear
Heat Index 77 °F
Dew Point 45 °F
Humidity 33%
Rainfall 0.02 in
Snow Depth Not available.
UV 9 out of 12
Pollen 6.00 out of 12
Air Quality Not available.
Flu Activity Not available.
METAR KCEZ 031753Z AUTO 20012G15KT 10SM CLR 26/09 A3017 RMK AO2 SLP137 T02560089 10256 20150 58008
Pressure 29.94 in
Visibility 10.0 miles
Clouds Clear
Heat Index 77 °F
Dew Point 45 °F
Humidity 33%
Rainfall 0.02 in
Snow Depth Not available.
UV 9 out of 12
Pollen 6.00 out of 12
Air Quality Not available.
Flu Activity Not available.
METAR KCEZ 031753Z AUTO 20012G15KT 10SM CLR 26/09 A3017 RMK AO2 SLP137 T02560089 10256 20150 58008

10-Day Weather Forecast

×

Almanac

Astronomy

Sep. 03, 2015 Rise Set
Actual Time
Civil Twilight
Nautical Twilight
Astronomical Twilight
Moon
Length of Visible Light
Length of Day
Tomorrow will be .
, % of the Moon is Illuminated

Today's Extremes

State Highs State Lows

Community

WunderPhotos

Upload Photos

1,852,001 photos uploaded!

WunderBlogs® & News

Nearby

Air Quality

  Air Quality AQ Index Pollutant
Not available.

Snow Depth

Station Depth Elevation

Earthquake Activity

City Distance Mag. Time & Date
Minimum magnitude displayed is 2.5.

Coastal Water Temperatures

Place Temperature

Stations

Nearby Weather Stations

Station Location Temp. Windchill Dew Point Humidity Wind Precip. Elev Updated Type